Flag for U.S.A. Weather past 2 weeks in Sterling Heights, Michigan, U.S.A.

Now
77 °F

Passing clouds.


Feels Like: 79 °F
Forecast: 70 / 81 °F
Wind: 18 mph from Southwest

Location: Selfridge Air National Guard Base

Current Time: Aug 31, 2014 at 12:57:41 AM

Latest Report: Aug 30, 2014 at 11:58 PM


Visibility: 10 mi

Pressure: 29.90 "Hg

Humidity: 72%

Dew point: 67 °F

Location of Sterling HeightsLocation

Historic Weather in Sterling Heights — Graph

°F

Sterling Heights temperature yesterday

Maximum temperature yesterday: 85 °F (at 4:55 PM)
Minimum temperature yesterday: 67 °F (at 6:58 AM)
Average temperature yesterday: 77 °F

Past Weeks' High & Low Weather Summary

 TemperatureHumidityPressure
High88 °F (Aug 26, 2:55 PM)100% (Aug 19, 9:58 PM)30.19 "Hg (Aug 19, 9:58 PM)
Low55 °F (Aug 16, 5:58 AM)47% (Aug 16, 11:55 AM)29.76 "Hg (Aug 19, 5:55 PM)
Average70 °F76%30.00 "Hg
* Reported Aug 15 11:58 PM — Aug 30 11:58 PM, Sterling Heights, Weather by CustomWeather, © 2014

Note: Actual official high and low records may vary slightly from our data, if they occured in-between our weather recording intervals... More about our weather records

Advertising

Sterling Heights weather history for previous 24 hours

 ConditionsComfort  
Time TempWeatherWind HumidityBarometerVisibility
11:58 PM
Aug 30
77 °FPassing clouds.18 mph72%29.90 "Hg10 mi
10:58 PM79 °FPassing clouds.20 mph69%29.89 "Hg10 mi
9:58 PM80 °FPassing clouds.15 mph65%29.90 "Hg10 mi
8:58 PM80 °FPassing clouds.12 mph63%29.88 "Hg10 mi
7:55 PM80 °FPartly sunny.12 mph66%29.86 "Hg10 mi
6:55 PM82 °FPartly sunny.12 mph60%29.86 "Hg10 mi
5:55 PM83 °FBroken clouds.16 mph59%29.87 "Hg10 mi
4:55 PM85 °FBroken clouds.16 mph53%29.88 "Hg10 mi
3:55 PM83 °FPartly sunny.18 mph55%29.90 "Hg10 mi
2:55 PM84 °FCloudy.15 mph53%29.91 "Hg10 mi
1:55 PM84 °FPartly sunny.14 mph57%29.92 "Hg10 mi
12:55 PM83 °FBroken clouds.13 mph62%29.93 "Hg10 mi
11:55 AM82 °FPartly sunny.14 mph62%29.94 "Hg10 mi
10:55 AM81 °FPartly sunny.12 mph60%29.96 "Hg10 mi
9:55 AM78 °FPartly sunny.12 mph65%29.97 "Hg10 mi
8:55 AM76 °FPartly sunny.8 mph70%29.97 "Hg10 mi
7:55 AM71 °FPartly sunny.9 mph81%29.98 "Hg10 mi
6:58 AM67 °FClear.5 mph90%29.96 "Hg10 mi
5:58 AM68 °FPassing clouds.6 mph87%29.97 "Hg10 mi
4:58 AM69 °FPassing clouds.7 mph83%29.97 "Hg10 mi
3:58 AM69 °FPartly cloudy.6 mph83%29.98 "Hg10 mi
2:58 AM69 °FPassing clouds.6 mph86%29.99 "Hg10 mi
1:58 AM69 °FPassing clouds.6 mph84%30.01 "Hg10 mi
12:58 AM70 °FMostly cloudy.6 mph83%30.03 "Hg10 mi
Weather by CustomWeather, © 2014

See weather overviewHow to use our weather pages